[{"OBJECT_NAME":"LEMUR-1","OBJECT_ID":"2014-033AL","EPOCH":"2026-09-11T23:47:55.317408","MEAN_MOTION":14.85513227,"ECCENTRICITY":0.00486915,"INCLINATION":97.8,"RA_OF_ASC_NODE":42.9468,"ARG_OF_PERICENTER":151.8749,"MEAN_ANOMALY":208.5113,"EPHEMERIS_TYPE":0,"CLASSIFICATION_TYPE":"U","NORAD_CAT_ID":40044,"ELEMENT_SET_NO":999,"REV_AT_EPOCH":65835,"BSTAR":0.0001974436,"MEAN_MOTION_DOT":0.00001686,"MEAN_MOTION_DDOT":0},{"OBJECT_NAME":"LEMUR-2-GREENBERG","OBJECT_ID":"2017-042N","EPOCH":"2026-09-12T07:35:31.108992","MEAN_MOTION":15.33815386,"ECCENTRICITY":0.00093035,"INCLINATION":97.3854,"RA_OF_ASC_NODE":75.7324,"ARG_OF_PERICENTER":58.5962,"MEAN_ANOMALY":301.619,"EPHEMERIS_TYPE":0,"CLASSIFICATION_TYPE":"U","NORAD_CAT_ID":42837,"ELEMENT_SET_NO":999,"REV_AT_EPOCH":50173,"BSTAR":0.00040268554,"MEAN_MOTION_DOT":0.00013115,"MEAN_MOTION_DDOT":0},{"OBJECT_NAME":"LEMUR-2-ANDIS","OBJECT_ID":"2017-042P","EPOCH":"2026-09-12T01:24:48.305952","MEAN_MOTION":15.3814276,"ECCENTRICITY":0.00086903,"INCLINATION":97.3693,"RA_OF_ASC_NODE":75.9988,"ARG_OF_PERICENTER":56.7723,"MEAN_ANOMALY":303.4353,"EPHEMERIS_TYPE":0,"CLASSIFICATION_TYPE":"U","NORAD_CAT_ID":42838,"ELEMENT_SET_NO":999,"REV_AT_EPOCH":50179,"BSTAR":0.00047355543,"MEAN_MOTION_DOT":0.00017742,"MEAN_MOTION_DDOT":0},{"OBJECT_NAME":"LEMUR-2-MONSON","OBJECT_ID":"2017-042Q","EPOCH":"2026-09-12T06:13:35.777568","MEAN_MOTION":15.30198442,"ECCENTRICITY":0.00073096,"INCLINATION":97.4117,"RA_OF_ASC_NODE":75.4995,"ARG_OF_PERICENTER":52.8736,"MEAN_ANOMALY":307.3172,"EPHEMERIS_TYPE":0,"CLASSIFICATION_TYPE":"U","NORAD_CAT_ID":42839,"ELEMENT_SET_NO":999,"REV_AT_EPOCH":50147,"BSTAR":0.00036362652,"MEAN_MOTION_DOT":0.0001056,"MEAN_MOTION_DDOT":0},{"OBJECT_NAME":"LEMUR-2-FURIAUS","OBJECT_ID":"2017-042R","EPOCH":"2026-09-11T23:24:51.732000","MEAN_MOTION":15.32868381,"ECCENTRICITY":0.00079172,"INCLINATION":97.3801,"RA_OF_ASC_NODE":73.1535,"ARG_OF_PERICENTER":109.9251,"MEAN_ANOMALY":250.2845,"EPHEMERIS_TYPE":0,"CLASSIFICATION_TYPE":"U","NORAD_CAT_ID":42840,"ELEMENT_SET_NO":999,"REV_AT_EPOCH":50149,"BSTAR":0.00048615183,"MEAN_MOTION_DOT":0.00015383,"MEAN_MOTION_DDOT":0},{"OBJECT_NAME":"LEMUR-2-PETERG","OBJECT_ID":"2017-042S","EPOCH":"2026-09-12T06:54:05.290272","MEAN_MOTION":15.37347025,"ECCENTRICITY":0.00043048,"INCLINATION":97.4001,"RA_OF_ASC_NODE":80.7013,"ARG_OF_PERICENTER":41.7063,"MEAN_ANOMALY":318.4509,"EPHEMERIS_TYPE":0,"CLASSIFICATION_TYPE":"U","NORAD_CAT_ID":42841,"ELEMENT_SET_NO":999,"REV_AT_EPOCH":50180,"BSTAR":0.00048133746,"MEAN_MOTION_DOT":0.00017559,"MEAN_MOTION_DDOT":0},{"OBJECT_NAME":"LEMUR-2-DEMBITZ","OBJECT_ID":"2017-042T","EPOCH":"2026-09-11T23:57:10.271520","MEAN_MOTION":15.32750642,"ECCENTRICITY":0.00073694,"INCLINATION":97.384,"RA_OF_ASC_NODE":76.2509,"ARG_OF_PERICENTER":71.697,"MEAN_ANOMALY":288.5073,"EPHEMERIS_TYPE":0,"CLASSIFICATION_TYPE":"U","NORAD_CAT_ID":42842,"ELEMENT_SET_NO":999,"REV_AT_EPOCH":50163,"BSTAR":0.00047597548,"MEAN_MOTION_DOT":0.00015001,"MEAN_MOTION_DDOT":0},{"OBJECT_NAME":"LEMUR-2-ZACHARY","OBJECT_ID":"2017-042W","EPOCH":"2026-09-12T02:36:53.416512","MEAN_MOTION":15.58499665,"ECCENTRICITY":0.00033121,"INCLINATION":97.3525,"RA_OF_ASC_NODE":89.0871,"ARG_OF_PERICENTER":62.4053,"MEAN_ANOMALY":297.7539,"EPHEMERIS_TYPE":0,"CLASSIFICATION_TYPE":"U","NORAD_CAT_ID":42845,"ELEMENT_SET_NO":999,"REV_AT_EPOCH":50270,"BSTAR":0.00064376488,"MEAN_MOTION_DOT":0.00049255,"MEAN_MOTION_DDOT":0},{"OBJECT_NAME":"LEMUR-2-AMANDA-SVANTE","OBJECT_ID":"2021-034B","EPOCH":"2026-09-12T03:33:47.811456","MEAN_MOTION":15.39450247,"ECCENTRICITY":0.00007625,"INCLINATION":97.5695,"RA_OF_ASC_NODE":336.0298,"ARG_OF_PERICENTER":293.0741,"MEAN_ANOMALY":67.0423,"EPHEMERIS_TYPE":0,"CLASSIFICATION_TYPE":"U","NORAD_CAT_ID":48269,"ELEMENT_SET_NO":999,"REV_AT_EPOCH":29441,"BSTAR":0.00074477252,"MEAN_MOTION_DOT":0.00029173,"MEAN_MOTION_DDOT":0},{"OBJECT_NAME":"LEMUR-2-EMBRIONOVIS","OBJECT_ID":"2023-084AQ","EPOCH":"2026-09-12T05:17:48.873984","MEAN_MOTION":15.39598438,"ECCENTRICITY":0.00083986,"INCLINATION":97.6406,"RA_OF_ASC_NODE":42.9601,"ARG_OF_PERICENTER":13.1578,"MEAN_ANOMALY":346.9885,"EPHEMERIS_TYPE":0,"CLASSIFICATION_TYPE":"U","NORAD_CAT_ID":56970,"ELEMENT_SET_NO":999,"REV_AT_EPOCH":18106,"BSTAR":0.00026979814,"MEAN_MOTION_DOT":0.00010549,"MEAN_MOTION_DDOT":0},{"OBJECT_NAME":"LEMUR-2-DEVERILL-M-T","OBJECT_ID":"2023-100F","EPOCH":"2026-09-12T03:14:17.981376","MEAN_MOTION":15.43845617,"ECCENTRICITY":0.00062285,"INCLINATION":99.4387,"RA_OF_ASC_NODE":319.2911,"ARG_OF_PERICENTER":104.4599,"MEAN_ANOMALY":255.7334,"EPHEMERIS_TYPE":0,"CLASSIFICATION_TYPE":"U","NORAD_CAT_ID":57391,"ELEMENT_SET_NO":999,"REV_AT_EPOCH":17464,"BSTAR":0.0005612976,"MEAN_MOTION_DOT":0.000254,"MEAN_MOTION_DDOT":0},{"OBJECT_NAME":"LEMUR-2-BASS","OBJECT_ID":"2023-174D","EPOCH":"2026-09-12T05:23:03.564384","MEAN_MOTION":15.45716627,"ECCENTRICITY":0.00060444,"INCLINATION":97.3813,"RA_OF_ASC_NODE":341.3011,"ARG_OF_PERICENTER":202.6513,"MEAN_ANOMALY":157.447,"EPHEMERIS_TYPE":0,"CLASSIFICATION_TYPE":"U","NORAD_CAT_ID":58259,"ELEMENT_SET_NO":999,"REV_AT_EPOCH":15879,"BSTAR":0.00028606629,"MEAN_MOTION_DOT":0.00013744,"MEAN_MOTION_DDOT":0},{"OBJECT_NAME":"LEMUR-2-JK0903EM1407","OBJECT_ID":"2023-174CJ","EPOCH":"2026-09-12T05:07:07.159584","MEAN_MOTION":15.55946525,"ECCENTRICITY":0.00048462,"INCLINATION":97.3909,"RA_OF_ASC_NODE":348.398,"ARG_OF_PERICENTER":149.8162,"MEAN_ANOMALY":210.3372,"EPHEMERIS_TYPE":0,"CLASSIFICATION_TYPE":"U","NORAD_CAT_ID":58336,"ELEMENT_SET_NO":999,"REV_AT_EPOCH":15924,"BSTAR":0.00033619477,"MEAN_MOTION_DOT":0.00023275,"MEAN_MOTION_DDOT":0},{"OBJECT_NAME":"LEMUR-2-MJR092620","OBJECT_ID":"2023-174CN","EPOCH":"2026-09-12T04:39:21.125664","MEAN_MOTION":15.4781423,"ECCENTRICITY":0.00061977,"INCLINATION":97.396,"RA_OF_ASC_NODE":347.0017,"ARG_OF_PERICENTER":151.5267,"MEAN_ANOMALY":208.6323,"EPHEMERIS_TYPE":0,"CLASSIFICATION_TYPE":"U","NORAD_CAT_ID":58340,"ELEMENT_SET_NO":999,"REV_AT_EPOCH":15909,"BSTAR":0.00030243232,"MEAN_MOTION_DOT":0.00015631,"MEAN_MOTION_DDOT":0},{"OBJECT_NAME":"LEMUR-2-NIMBUS2000","OBJECT_ID":"2024-022A","EPOCH":"2026-09-12T02:50:30.132384","MEAN_MOTION":15.43336356,"ECCENTRICITY":0.00086951,"INCLINATION":97.3998,"RA_OF_ASC_NODE":106.3855,"ARG_OF_PERICENTER":153.5479,"MEAN_ANOMALY":206.6214,"EPHEMERIS_TYPE":0,"CLASSIFICATION_TYPE":"U","NORAD_CAT_ID":58899,"ELEMENT_SET_NO":999,"REV_AT_EPOCH":14566,"BSTAR":0.00040869929,"MEAN_MOTION_DOT":0.00018171,"MEAN_MOTION_DDOT":0},{"OBJECT_NAME":"LEMUR-2-VALHALLA","OBJECT_ID":"2024-022B","EPOCH":"2026-09-12T02:16:23.995488","MEAN_MOTION":15.42027984,"ECCENTRICITY":0.00093903,"INCLINATION":97.3998,"RA_OF_ASC_NODE":106.2456,"ARG_OF_PERICENTER":150.1843,"MEAN_ANOMALY":209.9941,"EPHEMERIS_TYPE":0,"CLASSIFICATION_TYPE":"U","NORAD_CAT_ID":58900,"ELEMENT_SET_NO":999,"REV_AT_EPOCH":14565,"BSTAR":0.00027792331,"MEAN_MOTION_DOT":0.00011791,"MEAN_MOTION_DDOT":0},{"OBJECT_NAME":"LEMUR-2-CAEL","OBJECT_ID":"2024-022E","EPOCH":"2026-09-12T02:09:50.869440","MEAN_MOTION":15.43532327,"ECCENTRICITY":0.00082747,"INCLINATION":97.3978,"RA_OF_ASC_NODE":107.3409,"ARG_OF_PERICENTER":132.7691,"MEAN_ANOMALY":227.4255,"EPHEMERIS_TYPE":0,"CLASSIFICATION_TYPE":"U","NORAD_CAT_ID":58903,"ELEMENT_SET_NO":999,"REV_AT_EPOCH":14573,"BSTAR":0.00028511169,"MEAN_MOTION_DOT":0.00012723,"MEAN_MOTION_DDOT":0},{"OBJECT_NAME":"LEMUR-2-JOHNNYTRUONG","OBJECT_ID":"2024-043BA","EPOCH":"2026-09-11T23:39:50.482080","MEAN_MOTION":15.67260686,"ECCENTRICITY":0.00033909,"INCLINATION":97.544,"RA_OF_ASC_NODE":52.5493,"ARG_OF_PERICENTER":213.0207,"MEAN_ANOMALY":147.0842,"EPHEMERIS_TYPE":0,"CLASSIFICATION_TYPE":"U","NORAD_CAT_ID":59146,"ELEMENT_SET_NO":999,"REV_AT_EPOCH":14160,"BSTAR":0.00044296236,"MEAN_MOTION_DOT":0.00047611,"MEAN_MOTION_DDOT":0},{"OBJECT_NAME":"LEMUR-2-TOMATOKECHUP","OBJECT_ID":"2024-149D","EPOCH":"2026-09-12T05:23:32.070336","MEAN_MOTION":15.376398,"ECCENTRICITY":0.00001657,"INCLINATION":97.3754,"RA_OF_ASC_NODE":337.5705,"ARG_OF_PERICENTER":315.8037,"MEAN_ANOMALY":44.3194,"EPHEMERIS_TYPE":0,"CLASSIFICATION_TYPE":"U","NORAD_CAT_ID":60471,"ELEMENT_SET_NO":999,"REV_AT_EPOCH":11553,"BSTAR":0.00021879522,"MEAN_MOTION_DOT":0.00008001,"MEAN_MOTION_DDOT":0},{"OBJECT_NAME":"LEMUR-2-STELLA","OBJECT_ID":"2024-149BT","EPOCH":"2026-09-12T04:51:38.153088","MEAN_MOTION":15.13435928,"ECCENTRICITY":0.0001768,"INCLINATION":97.6698,"RA_OF_ASC_NODE":338.1215,"ARG_OF_PERICENTER":101.3477,"MEAN_ANOMALY":258.7952,"EPHEMERIS_TYPE":0,"CLASSIFICATION_TYPE":"U","NORAD_CAT_ID":60533,"ELEMENT_SET_NO":999,"REV_AT_EPOCH":11365,"BSTAR":0.00041781391,"MEAN_MOTION_DOT":0.00007401,"MEAN_MOTION_DDOT":0},{"OBJECT_NAME":"LEMUR-2-MARHISYAM","OBJECT_ID":"2024-149BW","EPOCH":"2026-09-12T03:40:28.074144","MEAN_MOTION":15.12709422,"ECCENTRICITY":0.00024694,"INCLINATION":97.6846,"RA_OF_ASC_NODE":338.5993,"ARG_OF_PERICENTER":147.0821,"MEAN_ANOMALY":213.0564,"EPHEMERIS_TYPE":0,"CLASSIFICATION_TYPE":"U","NORAD_CAT_ID":60536,"ELEMENT_SET_NO":999,"REV_AT_EPOCH":11362,"BSTAR":0.00037654676,"MEAN_MOTION_DOT":0.00006528,"MEAN_MOTION_DDOT":0},{"OBJECT_NAME":"LEMUR-2-AHMED-ASRAR","OBJECT_ID":"2024-149DN","EPOCH":"2026-09-12T03:54:36.355392","MEAN_MOTION":15.14388856,"ECCENTRICITY":0.0003156,"INCLINATION":97.6979,"RA_OF_ASC_NODE":341.0588,"ARG_OF_PERICENTER":76.9907,"MEAN_ANOMALY":283.1677,"EPHEMERIS_TYPE":0,"CLASSIFICATION_TYPE":"U","NORAD_CAT_ID":60576,"ELEMENT_SET_NO":999,"REV_AT_EPOCH":11372,"BSTAR":0.0003981557,"MEAN_MOTION_DOT":0.00007242,"MEAN_MOTION_DDOT":0},{"OBJECT_NAME":"LEMUR-2-LLOYD","OBJECT_ID":"2024-149DP","EPOCH":"2026-09-12T04:24:58.201344","MEAN_MOTION":15.10663884,"ECCENTRICITY":0.00033486,"INCLINATION":97.6702,"RA_OF_ASC_NODE":336.4286,"ARG_OF_PERICENTER":191.74,"MEAN_ANOMALY":168.3752,"EPHEMERIS_TYPE":0,"CLASSIFICATION_TYPE":"U","NORAD_CAT_ID":60577,"ELEMENT_SET_NO":999,"REV_AT_EPOCH":11352,"BSTAR":0.00044487162,"MEAN_MOTION_DOT":0.00007299,"MEAN_MOTION_DDOT":0}]